Wetterdaten: Dienstag, 17.11.2015
Datum Zeit Temp. A. Feuchte A. Luftdruck Regen Wind Richtung Richtung Sonnenschein ET UV Solar Taupunkt Windchill Windben Empfang
17.11.2015 00:00 9,6 C 77 % 1017,0 hPa 0,0 l/m 1,4 km/h (1 Bft) S-SW 209 0 min 0,000 mm 0,0 UV-I 0 W/m 5,8 C 9,6 C 3,2 km/h (1 Bft) 98,20 %
17.11.2015 00:05 9,2 C 78 % 1017,1 hPa 0,0 l/m 1,6 km/h (1 Bft) SW 229 0 min 0,000 mm 0,0 UV-I 0 W/m 5,6 C 9,2 C 4,8 km/h (1 Bft) 98,21 %
17.11.2015 00:10 8,9 C 80 % 1017,1 hPa 0,0 l/m 1,6 km/h (1 Bft) S-SW 204 0 min 0,000 mm 0,0 UV-I 0 W/m 5,6 C 8,9 C 3,2 km/h (1 Bft) 100,00 %
17.11.2015 00:15 8,9 C 80 % 1017,1 hPa 0,0 l/m 2,2 km/h (1 Bft) S-SW 212 0 min 0,000 mm 0,0 UV-I 0 W/m 5,6 C 8,9 C 4,8 km/h (1 Bft) 97,52 %
17.11.2015 00:20 9,2 C 79 % 1017,1 hPa 0,0 l/m 1,6 km/h (1 Bft) S-SW 213 0 min 0,000 mm 0,0 UV-I 0 W/m 5,8 C 9,2 C 4,8 km/h (1 Bft) 99,06 %
17.11.2015 00:25 9,1 C 79 % 1017,1 hPa 0,0 l/m 0,7 km/h (0 Bft) S-SW 213 0 min 0,000 mm 0,0 UV-I 0 W/m 5,7 C 9,1 C 3,2 km/h (1 Bft) 100,00 %
17.11.2015 00:30 9,2 C 79 % 1017,2 hPa 0,0 l/m 2,1 km/h (1 Bft) SW 227 0 min 0,000 mm 0,0 UV-I 0 W/m 5,8 C 9,2 C 4,8 km/h (1 Bft) 98,17 %
17.11.2015 00:35 9,4 C 79 % 1017,2 hPa 0,0 l/m 1,8 km/h (1 Bft) W-SW 257 0 min 0,000 mm 0,0 UV-I 0 W/m 5,9 C 9,4 C 4,8 km/h (1 Bft) 100,00 %
17.11.2015 00:40 9,4 C 78 % 1017,2 hPa 0,0 l/m 1,7 km/h (1 Bft) W-SW 257 0 min 0,000 mm 0,0 UV-I 0 W/m 5,8 C 9,4 C 3,2 km/h (1 Bft) 99,17 %
17.11.2015 00:45 9,2 C 79 % 1017,2 hPa 0,0 l/m 0,7 km/h (0 Bft) W-SW 257 0 min 0,000 mm 0,0 UV-I 0 W/m 5,8 C 9,2 C 1,6 km/h (1 Bft) 99,13 %
17.11.2015 00:50 9,1 C 79 % 1017,2 hPa 0,0 l/m 0,3 km/h (0 Bft) W-SW 257 0 min 0,000 mm 0,0 UV-I 0 W/m 5,7 C 9,1 C 1,6 km/h (1 Bft) 98,17 %
17.11.2015 00:55 9,2 C 79 % 1017,2 hPa 0,0 l/m 1,2 km/h (1 Bft) W-SW 250 0 min 0,000 mm 0,0 UV-I 0 W/m 5,8 C 9,2 C 3,2 km/h (1 Bft) 100,00 %
17.11.2015 01:00 9,4 C 77 % 1017,3 hPa 0,0 l/m 1,8 km/h (1 Bft) W-SW 250 0 min 0,000 mm 0,0 UV-I 0 W/m 5,6 C 9,4 C 3,2 km/h (1 Bft) 98,31 %
17.11.2015 01:05 9,2 C 78 % 1017,1 hPa 0,0 l/m 1,5 km/h (1 Bft) SW 229 0 min 0,000 mm 0,0 UV-I 0 W/m 5,6 C 9,2 C 3,2 km/h (1 Bft) 99,19 %
17.11.2015 01:10 9,3 C 78 % 1017,1 hPa 0,0 l/m 0,8 km/h (0 Bft) SW 219 0 min 0,000 mm 0,0 UV-I 0 W/m 5,7 C 9,3 C 4,8 km/h (1 Bft) 99,15 %
17.11.2015 01:15 9,4 C 77 % 1017,2 hPa 0,0 l/m 1,4 km/h (1 Bft) W 263 0 min 0,000 mm 0,0 UV-I 0 W/m 5,6 C 9,4 C 4,8 km/h (1 Bft) 99,06 %
17.11.2015 01:20 9,2 C 77 % 1017,2 hPa 0,0 l/m 1,5 km/h (1 Bft) W-SW 257 0 min 0,000 mm 0,0 UV-I 0 W/m 5,4 C 9,2 C 3,2 km/h (1 Bft) 97,62 %
17.11.2015 01:25 9,0 C 78 % 1017,2 hPa 0,0 l/m 1,7 km/h (1 Bft) W-SW 250 0 min 0,000 mm 0,0 UV-I 0 W/m 5,4 C 9,0 C 3,2 km/h (1 Bft) 100,00 %
17.11.2015 01:30 9,1 C 77 % 1017,1 hPa 0,0 l/m 2,2 km/h (1 Bft) SW 235 0 min 0,000 mm 0,0 UV-I 0 W/m 5,3 C 9,1 C 4,8 km/h (1 Bft) 100,00 %
17.11.2015 01:35 8,9 C 78 % 1017,1 hPa 0,0 l/m 1,9 km/h (1 Bft) W-SW 240 0 min 0,000 mm 0,0 UV-I 0 W/m 5,3 C 8,9 C 3,2 km/h (1 Bft) 100,00 %
17.11.2015 01:40 8,8 C 78 % 1017,1 hPa 0,0 l/m 0,7 km/h (0 Bft) W-SW 240 0 min 0,000 mm 0,0 UV-I 0 W/m 5,2 C 8,8 C 1,6 km/h (1 Bft) 100,00 %
17.11.2015 01:45 8,9 C 78 % 1017,1 hPa 0,0 l/m 1,5 km/h (1 Bft) W 267 0 min 0,000 mm 0,0 UV-I 0 W/m 5,3 C 8,9 C 3,2 km/h (1 Bft) 100,00 %
17.11.2015 01:50 9,8 C 75 % 1017,1 hPa 0,0 l/m 3,0 km/h (1 Bft) W 269 0 min 0,000 mm 0,0 UV-I 0 W/m 5,6 C 9,8 C 4,8 km/h (1 Bft) 97,32 %
17.11.2015 01:55 10,4 C 73 % 1017,2 hPa 0,0 l/m 2,8 km/h (1 Bft) W 275 0 min 0,000 mm 0,0 UV-I 0 W/m 5,8 C 10,4 C 4,8 km/h (1 Bft) 98,39 %
17.11.2015 02:00 10,4 C 72 % 1017,2 hPa 0,0 l/m 2,7 km/h (1 Bft) W 275 0 min 0,000 mm 0,0 UV-I 0 W/m 5,6 C 10,4 C 4,8 km/h (1 Bft) 98,15 %
17.11.2015 02:05 10,4 C 72 % 1017,3 hPa 0,0 l/m 3,0 km/h (1 Bft) W 273 0 min 0,000 mm 0,0 UV-I 0 W/m 5,6 C 10,4 C 9,7 km/h (2 Bft) 99,13 %
17.11.2015 02:10 10,1 C 73 % 1017,3 hPa 0,0 l/m 1,2 km/h (1 Bft) W 275 0 min 0,000 mm 0,0 UV-I 0 W/m 5,5 C 10,1 C 4,8 km/h (1 Bft) 100,00 %
17.11.2015 02:15 9,7 C 75 % 1017,3 hPa 0,0 l/m 0,9 km/h (0 Bft) W 275 0 min 0,000 mm 0,0 UV-I 0 W/m 5,5 C 9,7 C 3,2 km/h (1 Bft) 98,31 %
17.11.2015 02:20 9,4 C 76 % 1017,3 hPa 0,0 l/m 0,9 km/h (0 Bft) W 275 0 min 0,000 mm 0,0 UV-I 0 W/m 5,4 C 9,4 C 1,6 km/h (1 Bft) 99,15 %
17.11.2015 02:25 9,5 C 76 % 1017,3 hPa 0,0 l/m 0,0 km/h (0 Bft) W 275 0 min 0,000 mm 0,0 UV-I 0 W/m 5,5 C 9,5 C 1,6 km/h (1 Bft) 99,12 %
17.11.2015 02:30 9,4 C 76 % 1017,3 hPa 0,0 l/m 0,2 km/h (0 Bft) W 275 0 min 0,000 mm 0,0 UV-I 0 W/m 5,4 C 9,4 C 1,6 km/h (1 Bft) 100,00 %
17.11.2015 02:35 9,4 C 76 % 1017,3 hPa 0,0 l/m 0,1 km/h (0 Bft) W 275 0 min 0,000 mm 0,0 UV-I 0 W/m 5,4 C 9,4 C 1,6 km/h (1 Bft) 99,08 %
17.11.2015 02:40 9,4 C 76 % 1017,3 hPa 0,0 l/m 0,0 km/h (0 Bft) W 275 0 min 0,000 mm 0,0 UV-I 0 W/m 5,4 C 9,4 C 1,6 km/h (1 Bft) 100,00 %
17.11.2015 02:45 9,1 C 76 % 1017,2 hPa 0,0 l/m 0,1 km/h (0 Bft) W 275 0 min 0,000 mm 0,0 UV-I 0 W/m 5,1 C 9,1 C 1,6 km/h (1 Bft) 99,17 %
17.11.2015 02:50 8,8 C 78 % 1017,2 hPa 0,0 l/m 0,1 km/h (0 Bft) W 275 0 min 0,000 mm 0,0 UV-I 0 W/m 5,2 C 8,8 C 1,6 km/h (1 Bft) 100,00 %
17.11.2015 02:55 8,8 C 78 % 1017,1 hPa 0,0 l/m 0,1 km/h (0 Bft) W 275 0 min 0,000 mm 0,0 UV-I 0 W/m 5,2 C 8,8 C 1,6 km/h (1 Bft) 100,00 %
17.11.2015 03:00 8,7 C 78 % 1017,1 hPa 0,0 l/m 0,2 km/h (0 Bft) W 275 0 min 0,000 mm 0,0 UV-I 0 W/m 5,1 C 8,7 C 1,6 km/h (1 Bft) 97,52 %
17.11.2015 03:05 8,3 C 79 % 1017,1 hPa 0,0 l/m 0,5 km/h (0 Bft) W 275 0 min 0,000 mm 0,0 UV-I 0 W/m 4,9 C 8,3 C 1,6 km/h (1 Bft) 99,15 %
17.11.2015 03:10 8,0 C 81 % 1017,2 hPa 0,0 l/m 0,4 km/h (0 Bft) W 275 0 min 0,000 mm 0,0 UV-I 0 W/m 4,9 C 8,0 C 1,6 km/h (1 Bft) 97,32 %
17.11.2015 03:15 7,7 C 83 % 1017,1 hPa 0,0 l/m 0,4 km/h (0 Bft) W 275 0 min 0,000 mm 0,0 UV-I 0 W/m 5,0 C 7,7 C 1,6 km/h (1 Bft) 100,00 %
17.11.2015 03:20 7,7 C 82 % 1017,0 hPa 0,0 l/m 0,8 km/h (0 Bft) S 184 0 min 0,000 mm 0,0 UV-I 0 W/m 4,8 C 7,7 C 3,2 km/h (1 Bft) 99,07 %
17.11.2015 03:25 7,6 C 83 % 1017,0 hPa 0,0 l/m 2,2 km/h (1 Bft) S-SO 163 0 min 0,000 mm 0,0 UV-I 0 W/m 4,9 C 7,6 C 4,8 km/h (1 Bft) 100,00 %
17.11.2015 03:30 7,8 C 82 % 1017,0 hPa 0,0 l/m 2,1 km/h (1 Bft) S-SO 150 0 min 0,000 mm 0,0 UV-I 0 W/m 4,9 C 7,8 C 3,2 km/h (1 Bft) 100,00 %
17.11.2015 03:35 7,7 C 82 % 1017,0 hPa 0,0 l/m 1,0 km/h (0 Bft) S-SO 150 0 min 0,000 mm 0,0 UV-I 0 W/m 4,8 C 7,7 C 3,2 km/h (1 Bft) 99,19 %
17.11.2015 03:40 7,1 C 83 % 1017,1 hPa 0,0 l/m 0,0 km/h (0 Bft) S-SO 150 0 min 0,000 mm 0,0 UV-I 0 W/m 4,4 C 7,1 C 1,6 km/h (1 Bft) 100,00 %
17.11.2015 03:45 6,2 C 86 % 1017,2 hPa 0,0 l/m 0,4 km/h (0 Bft) S-SO 150 0 min 0,000 mm 0,0 UV-I 0 W/m 4,0 C 6,2 C 1,6 km/h (1 Bft) 99,17 %
17.11.2015 03:50 6,1 C 88 % 1017,1 hPa 0,0 l/m 0,1 km/h (0 Bft) S-SO 150 0 min 0,000 mm 0,0 UV-I 0 W/m 4,3 C 6,1 C 1,6 km/h (1 Bft) 100,00 %
17.11.2015 03:55 6,8 C 87 % 1017,0 hPa 0,0 l/m 1,9 km/h (1 Bft) S-SO 150 0 min 0,000 mm 0,0 UV-I 0 W/m 4,8 C 6,8 C 3,2 km/h (1 Bft) 100,00 %
17.11.2015 04:00 7,5 C 84 % 1016,9 hPa 0,0 l/m 2,1 km/h (1 Bft) SO 144 0 min 0,000 mm 0,0 UV-I 0 W/m 5,0 C 7,5 C 4,8 km/h (1 Bft) 100,00 %
17.11.2015 04:05 7,7 C 83 % 1016,8 hPa 0,0 l/m 1,6 km/h (1 Bft) SO 144 0 min 0,000 mm 0,0 UV-I 0 W/m 5,0 C 7,7 C 3,2 km/h (1 Bft) 99,07 %
17.11.2015 04:10 7,8 C 82 % 1016,9 hPa 0,0 l/m 1,2 km/h (1 Bft) SO 144 0 min 0,000 mm 0,0 UV-I 0 W/m 4,9 C 7,8 C 3,2 km/h (1 Bft) 99,17 %
17.11.2015 04:15 7,3 C 84 % 1016,8 hPa 0,0 l/m 2,1 km/h (1 Bft) S-SO 155 0 min 0,000 mm 0,0 UV-I 0 W/m 4,8 C 7,3 C 3,2 km/h (1 Bft) 100,00 %
17.11.2015 04:20 7,2 C 85 % 1016,9 hPa 0,0 l/m 0,7 km/h (0 Bft) S-SO 155 0 min 0,000 mm 0,0 UV-I 0 W/m 4,9 C 7,2 C 3,2 km/h (1 Bft) 99,17 %
17.11.2015 04:25 7,2 C 84 % 1016,8 hPa 0,0 l/m 1,4 km/h (1 Bft) S-SO 155 0 min 0,000 mm 0,0 UV-I 0 W/m 4,7 C 7,2 C 3,2 km/h (1 Bft) 100,00 %
17.11.2015 04:30 6,4 C 87 % 1016,8 hPa 0,0 l/m 0,1 km/h (0 Bft) S 179 0 min 0,000 mm 0,0 UV-I 0 W/m 4,4 C 6,4 C 1,6 km/h (1 Bft) 100,00 %
17.11.2015 04:35 6,2 C 86 % 1016,8 hPa 0,0 l/m 1,6 km/h (1 Bft) W-NW 284 0 min 0,000 mm 0,0 UV-I 0 W/m 4,0 C 6,2 C 3,2 km/h (1 Bft) 99,11 %
17.11.2015 04:40 5,8 C 88 % 1016,8 hPa 0,0 l/m 1,4 km/h (1 Bft) W-NW 290 0 min 0,000 mm 0,0 UV-I 0 W/m 4,0 C 5,8 C 3,2 km/h (1 Bft) 97,50 %
17.11.2015 04:45 5,8 C 88 % 1016,8 hPa 0,0 l/m 0,1 km/h (0 Bft) W-NW 290 0 min 0,000 mm 0,0 UV-I 0 W/m 4,0 C 5,8 C 1,6 km/h (1 Bft) 99,08 %
17.11.2015 04:50 6,3 C 87 % 1016,8 hPa 0,0 l/m 0,2 km/h (0 Bft) W-NW 290 0 min 0,000 mm 0,0 UV-I 0 W/m 4,3 C 6,3 C 1,6 km/h (1 Bft) 100,00 %
17.11.2015 04:55 6,7 C 85 % 1016,8 hPa 0,0 l/m 0,1 km/h (0 Bft) W-NW 290 0 min 0,000 mm 0,0 UV-I 0 W/m 4,4 C 6,7 C 1,6 km/h (1 Bft) 96,49 %
17.11.2015 05:00 6,2 C 86 % 1016,7 hPa 0,0 l/m 0,8 km/h (0 Bft) W-NW 290 0 min 0,000 mm 0,0 UV-I 0 W/m 4,0 C 6,2 C 3,2 km/h (1 Bft) 96,61 %
17.11.2015 05:05 5,7 C 89 % 1016,6 hPa 0,0 l/m 1,6 km/h (1 Bft) W-NW 292 0 min 0,000 mm 0,0 UV-I 0 W/m 4,0 C 5,7 C 3,2 km/h (1 Bft) 99,17 %
17.11.2015 05:10 5,5 C 90 % 1016,7 hPa 0,0 l/m 1,2 km/h (1 Bft) W-NW 292 0 min 0,000 mm 0,0 UV-I 0 W/m 4,0 C 5,5 C 3,2 km/h (1 Bft) 99,08 %
17.11.2015 05:15 5,8 C 89 % 1016,6 hPa 0,0 l/m 1,0 km/h (0 Bft) W-SW 238 0 min 0,000 mm 0,0 UV-I 0 W/m 4,1 C 5,8 C 3,2 km/h (1 Bft) 99,17 %
17.11.2015 05:20 6,0 C 89 % 1016,5 hPa 0,0 l/m 1,2 km/h (1 Bft) SO 142 0 min 0,000 mm 0,0 UV-I 0 W/m 4,3 C 6,0 C 3,2 km/h (1 Bft) 99,17 %
17.11.2015 05:25 6,7 C 87 % 1016,5 hPa 0,0 l/m 2,8 km/h (1 Bft) SO 140 0 min 0,000 mm 0,0 UV-I 0 W/m 4,7 C 6,7 C 4,8 km/h (1 Bft) 100,00 %
17.11.2015 05:30 6,3 C 87 % 1016,5 hPa 0,0 l/m 0,5 km/h (0 Bft) SO 140 0 min 0,000 mm 0,0 UV-I 0 W/m 4,3 C 6,3 C 3,2 km/h (1 Bft) 100,00 %
17.11.2015 05:35 6,0 C 88 % 1016,5 hPa 0,0 l/m 0,2 km/h (0 Bft) SO 140 0 min 0,000 mm 0,0 UV-I 0 W/m 4,2 C 6,0 C 1,6 km/h (1 Bft) 99,11 %
17.11.2015 05:40 5,7 C 89 % 1016,5 hPa 0,0 l/m 0,6 km/h (0 Bft) S-SW 207 0 min 0,000 mm 0,0 UV-I 0 W/m 4,0 C 5,7 C 3,2 km/h (1 Bft) 99,19 %
17.11.2015 05:45 5,5 C 90 % 1016,4 hPa 0,0 l/m 0,0 km/h (0 Bft) S-SW 207 0 min 0,000 mm 0,0 UV-I 0 W/m 4,0 C 5,5 C 1,6 km/h (1 Bft) 98,29 %
17.11.2015 05:50 5,4 C 91 % 1016,4 hPa 0,0 l/m 0,0 km/h (0 Bft) S-SW 207 0 min 0,000 mm 0,0 UV-I 0 W/m 4,1 C 5,4 C 0,0 km/h (0 Bft) 100,00 %
17.11.2015 05:55 5,7 C 91 % 1016,5 hPa 0,0 l/m 0,0 km/h (0 Bft) S-SW 207 0 min 0,000 mm 0,0 UV-I 0 W/m 4,3 C 5,7 C 0,0 km/h (0 Bft) 100,00 %
17.11.2015 06:00 5,8 C 90 % 1016,4 hPa 0,0 l/m 0,0 km/h (0 Bft) S-SW 207 0 min 0,000 mm 0,0 UV-I 0 W/m 4,3 C 5,8 C 0,0 km/h (0 Bft) 98,33 %
17.11.2015 06:05 5,8 C 90 % 1016,4 hPa 0,0 l/m 0,0 km/h (0 Bft) S-SW 207 0 min 0,000 mm 0,0 UV-I 0 W/m 4,3 C 5,8 C 0,0 km/h (0 Bft) 100,00 %
17.11.2015 06:10 5,6 C 90 % 1016,4 hPa 0,0 l/m 0,0 km/h (0 Bft) S-SW 207 0 min 0,000 mm 0,0 UV-I 0 W/m 4,1 C 5,6 C 0,0 km/h (0 Bft) 100,00 %
17.11.2015 06:15 5,4 C 91 % 1016,4 hPa 0,0 l/m 0,4 km/h (0 Bft) S-SW 207 0 min 0,000 mm 0,0 UV-I 0 W/m 4,1 C 5,4 C 1,6 km/h (1 Bft) 99,12 %
17.11.2015 06:20 5,4 C 90 % 1016,4 hPa 0,0 l/m 0,4 km/h (0 Bft) S-SW 207 0 min 0,000 mm 0,0 UV-I 0 W/m 3,9 C 5,4 C 1,6 km/h (1 Bft) 99,13 %
17.11.2015 06:25 5,5 C 90 % 1016,4 hPa 0,0 l/m 0,4 km/h (0 Bft) S-SW 207 0 min 0,000 mm 0,0 UV-I 0 W/m 4,0 C 5,5 C 3,2 km/h (1 Bft) 98,37 %
17.11.2015 06:30 5,8 C 89 % 1016,4 hPa 0,0 l/m 1,8 km/h (1 Bft) S-SW 207 0 min 0,000 mm 0,0 UV-I 0 W/m 4,1 C 5,8 C 3,2 km/h (1 Bft) 99,08 %
17.11.2015 06:35 6,1 C 88 % 1016,3 hPa 0,0 l/m 1,2 km/h (1 Bft) S-SW 207 0 min 0,000 mm 0,0 UV-I 0 W/m 4,3 C 6,1 C 3,2 km/h (1 Bft) 100,00 %
17.11.2015 06:40 6,3 C 87 % 1016,2 hPa 0,0 l/m 0,8 km/h (0 Bft) S-SW 207 0 min 0,000 mm 0,0 UV-I 0 W/m 4,3 C 6,3 C 3,2 km/h (1 Bft) 100,00 %
17.11.2015 06:45 6,7 C 85 % 1016,2 hPa 0,0 l/m 0,9 km/h (0 Bft) S-SW 207 0 min 0,000 mm 0,0 UV-I 0 W/m 4,4 C 6,7 C 3,2 km/h (1 Bft) 99,08 %
17.11.2015 06:50 6,8 C 83 % 1016,3 hPa 0,0 l/m 0,4 km/h (0 Bft) S-SW 207 0 min 0,000 mm 0,0 UV-I 0 W/m 4,1 C 6,8 C 1,6 km/h (1 Bft) 96,69 %
17.11.2015 06:55 7,2 C 81 % 1016,2 hPa 0,0 l/m 0,1 km/h (0 Bft) S-SW 207 0 min 0,000 mm 0,0 UV-I 0 W/m 4,2 C 7,2 C 1,6 km/h (1 Bft) 99,10 %
17.11.2015 07:00 7,2 C 81 % 1016,2 hPa 0,0 l/m 0,1 km/h (0 Bft) S-SW 207 0 min 0,000 mm 0,0 UV-I 0 W/m 4,2 C 7,2 C 1,6 km/h (1 Bft) 100,00 %
17.11.2015 07:05 6,9 C 83 % 1016,2 hPa 0,0 l/m 1,2 km/h (1 Bft) S-SW 207 0 min 0,000 mm 0,0 UV-I 0 W/m 4,2 C 6,9 C 3,2 km/h (1 Bft) 99,19 %
17.11.2015 07:10 6,8 C 83 % 1016,2 hPa 0,0 l/m 1,1 km/h (1 Bft) S-SW 193 0 min 0,000 mm 0,0 UV-I 5 W/m 4,1 C 6,8 C 3,2 km/h (1 Bft) 100,00 %
17.11.2015 07:15 6,7 C 85 % 1016,3 hPa 0,0 l/m 0,2 km/h (0 Bft) S-SW 193 0 min 0,000 mm 0,0 UV-I 3 W/m 4,4 C 6,7 C 1,6 km/h (1 Bft) 100,00 %
17.11.2015 07:20 6,5 C 85 % 1016,2 hPa 0,0 l/m 0,1 km/h (0 Bft) S-SW 193 0 min 0,000 mm 0,0 UV-I 0 W/m 4,2 C 6,5 C 1,6 km/h (1 Bft) 96,40 %
17.11.2015 07:25 6,3 C 86 % 1016,2 hPa 0,0 l/m 0,0 km/h (0 Bft) S-SW 193 0 min 0,000 mm 0,0 UV-I 4 W/m 4,1 C 6,3 C 0,0 km/h (0 Bft) 99,11 %
17.11.2015 07:30 6,2 C 86 % 1016,3 hPa 0,0 l/m 0,0 km/h (0 Bft) S-SW 193 0 min 0,000 mm 0,0 UV-I 8 W/m 4,0 C 6,2 C 0,0 km/h (0 Bft) 100,00 %
17.11.2015 07:35 6,1 C 86 % 1016,3 hPa 0,0 l/m 0,1 km/h (0 Bft) S-SW 193 0 min 0,000 mm 0,0 UV-I 11 W/m 3,9 C 6,1 C 1,6 km/h (1 Bft) 100,00 %
17.11.2015 07:40 6,0 C 87 % 1016,2 hPa 0,0 l/m 1,6 km/h (1 Bft) S-SW 193 0 min 0,000 mm 0,0 UV-I 14 W/m 4,0 C 6,0 C 3,2 km/h (1 Bft) 99,26 %
17.11.2015 07:45 5,9 C 88 % 1016,3 hPa 0,0 l/m 0,3 km/h (0 Bft) S-SW 193 0 min 0,000 mm 0,0 UV-I 18 W/m 4,1 C 5,9 C 3,2 km/h (1 Bft) 100,00 %
17.11.2015 07:50 5,9 C 88 % 1016,1 hPa 0,0 l/m 0,0 km/h (0 Bft) S-SW 193 0 min 0,000 mm 0,0 UV-I 20 W/m 4,1 C 5,9 C 0,0 km/h (0 Bft) 99,21 %
17.11.2015 07:55 6,2 C 87 % 1016,2 hPa 0,0 l/m 0,0 km/h (0 Bft) S-SW 193 0 min 0,000 mm 0,0 UV-I 25 W/m 4,2 C 6,2 C 0,0 km/h (0 Bft) 99,11 %
17.11.2015 08:00 6,3 C 86 % 1016,1 hPa 0,0 l/m 0,0 km/h (0 Bft) S-SW 193 0 min 0,000 mm 0,0 UV-I 31 W/m 4,1 C 6,3 C 0,0 km/h (0 Bft) 100,00 %
17.11.2015 08:05 6,3 C 86 % 1016,1 hPa 0,0 l/m 0,0 km/h (0 Bft) S-SW 193 0 min 0,000 mm 0,0 UV-I 33 W/m 4,1 C 6,3 C 1,6 km/h (1 Bft) 99,15 %
17.11.2015 08:10 6,5 C 85 % 1016,1 hPa 0,0 l/m 0,0 km/h (0 Bft) S-SW 193 0 min 0,000 mm 0,0 UV-I 36 W/m 4,2 C 6,5 C 0,0 km/h (0 Bft) 99,17 %
17.11.2015 08:15 6,3 C 86 % 1016,2 hPa 0,0 l/m 0,0 km/h (0 Bft) S-SW 193 0 min 0,000 mm 0,0 UV-I 39 W/m 4,1 C 6,3 C 0,0 km/h (0 Bft) 99,17 %
17.11.2015 08:20 6,1 C 87 % 1016,3 hPa 0,0 l/m 0,0 km/h (0 Bft) S-SW 193 0 min 0,000 mm 0,0 UV-I 37 W/m 4,1 C 6,1 C 0,0 km/h (0 Bft) 98,21 %
17.11.2015 08:25 5,9 C 88 % 1016,5 hPa 0,0 l/m 0,6 km/h (0 Bft) W-SW 244 0 min 0,000 mm 0,0 UV-I 32 W/m 4,1 C 5,9 C 3,2 km/h (1 Bft) 97,32 %
17.11.2015 08:30 5,6 C 88 % 1016,4 hPa 0,0 l/m 0,6 km/h (0 Bft) W 275 0 min 0,000 mm 0,0 UV-I 39 W/m 3,8 C 5,6 C 3,2 km/h (1 Bft) 100,00 %
17.11.2015 08:35 6,1 C 86 % 1016,7 hPa 0,0 l/m 0,7 km/h (0 Bft) S 170 0 min 0,000 mm 0,0 UV-I 52 W/m 3,9 C 6,1 C 1,6 km/h (1 Bft) 100,00 %
17.11.2015 08:40 5,6 C 88 % 1016,6 hPa 0,0 l/m 1,5 km/h (1 Bft) S 170 0 min 0,000 mm 0,0 UV-I 48 W/m 3,8 C 5,6 C 3,2 km/h (1 Bft) 100,00 %
17.11.2015 08:45 6,2 C 87 % 1016,7 hPa 0,0 l/m 0,1 km/h (0 Bft) S 170 0 min 0,000 mm 0,0 UV-I 51 W/m 4,2 C 6,2 C 1,6 km/h (1 Bft) 96,61 %
17.11.2015 08:50 6,7 C 85 % 1016,6 hPa 0,0 l/m 0,2 km/h (0 Bft) S 170 5 min 0,000 mm 0,0 UV-I 122 W/m 4,4 C 6,7 C 1,6 km/h (1 Bft) 99,19 %
17.11.2015 08:55 6,9 C 84 % 1016,6 hPa 0,0 l/m 1,3 km/h (1 Bft) S-SW 192 5 min 0,000 mm 0,0 UV-I 162 W/m 4,4 C 6,9 C 4,8 km/h (1 Bft) 99,10 %
17.11.2015 09:00 7,4 C 83 % 1016,7 hPa 0,0 l/m 2,4 km/h (1 Bft) SW 214 5 min 0,025 mm 0,0 UV-I 187 W/m 4,7 C 7,4 C 4,8 km/h (1 Bft) 99,19 %
17.11.2015 09:05 7,8 C 82 % 1016,7 hPa 0,0 l/m 3,3 km/h (1 Bft) W-SW 250 5 min 0,000 mm 0,0 UV-I 194 W/m 4,9 C 7,8 C 8,0 km/h (2 Bft) 97,94 %
17.11.2015 09:10 8,1 C 82 % 1016,7 hPa 0,0 l/m 2,2 km/h (1 Bft) SW 227 0 min 0,000 mm 0,0 UV-I 136 W/m 5,2 C 8,1 C 4,8 km/h (1 Bft) 100,00 %
17.11.2015 09:15 8,2 C 83 % 1016,9 hPa 0,0 l/m 0,5 km/h (0 Bft) NW 312 0 min 0,000 mm 0,0 UV-I 84 W/m 5,5 C 8,2 C 3,2 km/h (1 Bft) 100,00 %
17.11.2015 09:20 8,2 C 83 % 1017,0 hPa 0,0 l/m 0,1 km/h (0 Bft) NW 312 0 min 0,000 mm 0,0 UV-I 87 W/m 5,5 C 8,2 C 1,6 km/h (1 Bft) 97,50 %
17.11.2015 09:25 8,3 C 82 % 1016,9 hPa 0,0 l/m 2,8 km/h (1 Bft) S-SW 194 0 min 0,000 mm 0,0 UV-I 109 W/m 5,4 C 8,3 C 4,8 km/h (1 Bft) 98,35 %
17.11.2015 09:30 8,5 C 84 % 1016,9 hPa 0,0 l/m 2,3 km/h (1 Bft) S-SW 208 5 min 0,000 mm 0,0 UV-I 168 W/m 6,0 C 8,5 C 4,8 km/h (1 Bft) 98,29 %
17.11.2015 09:35 8,8 C 82 % 1016,7 hPa 0,0 l/m 2,2 km/h (1 Bft) S-SW 206 0 min 0,000 mm 0,0 UV-I 154 W/m 5,9 C 8,8 C 4,8 km/h (1 Bft) 100,00 %
17.11.2015 09:40 8,9 C 81 % 1016,8 hPa 0,0 l/m 4,0 km/h (1 Bft) S-SW 202 0 min 0,000 mm 0,0 UV-I 83 W/m 5,8 C 8,9 C 9,7 km/h (2 Bft) 99,17 %
17.11.2015 09:45 8,9 C 81 % 1016,9 hPa 0,0 l/m 4,8 km/h (1 Bft) SW 231 0 min 0,000 mm 0,5 UV-I 72 W/m 5,8 C 8,9 C 8,0 km/h (2 Bft) 99,08 %
17.11.2015 09:50 8,8 C 82 % 1016,9 hPa 0,0 l/m 3,9 km/h (1 Bft) S-SW 205 0 min 0,000 mm 0,0 UV-I 50 W/m 5,9 C 8,8 C 6,4 km/h (2 Bft) 100,00 %
17.11.2015 09:55 9,1 C 83 % 1017,1 hPa 0,0 l/m 3,3 km/h (1 Bft) W 281 5 min 0,000 mm 0,6 UV-I 202 W/m 6,4 C 9,1 C 6,4 km/h (2 Bft) 99,11 %
17.11.2015 10:00 9,8 C 80 % 1017,0 hPa 0,0 l/m 4,1 km/h (1 Bft) SW 221 5 min 0,077 mm 0,7 UV-I 279 W/m 6,5 C 9,8 C 6,4 km/h (2 Bft) 99,21 %
17.11.2015 10:05 10,6 C 77 % 1016,9 hPa 0,0 l/m 4,8 km/h (1 Bft) S-SW 211 5 min 0,000 mm 0,7 UV-I 297 W/m 6,7 C 10,6 C 9,7 km/h (2 Bft) 100,00 %
17.11.2015 10:10 10,9 C 75 % 1017,1 hPa 0,0 l/m 4,9 km/h (1 Bft) SW 234 0 min 0,000 mm 0,6 UV-I 139 W/m 6,6 C 10,9 C 11,3 km/h (2 Bft) 99,11 %
17.11.2015 10:15 10,8 C 76 % 1017,1 hPa 0,0 l/m 4,8 km/h (1 Bft) SW 231 0 min 0,000 mm 0,5 UV-I 95 W/m 6,7 C 10,8 C 9,7 km/h (2 Bft) 99,21 %
17.11.2015 10:20 11,2 C 73 % 1017,0 hPa 0,0 l/m 7,3 km/h (2 Bft) SW 231 5 min 0,000 mm 0,7 UV-I 311 W/m 6,5 C 10,6 C 14,5 km/h (3 Bft) 100,00 %
17.11.2015 10:25 11,6 C 72 % 1017,0 hPa 0,0 l/m 10,4 km/h (2 Bft) S-SW 207 5 min 0,000 mm 0,8 UV-I 426 W/m 6,7 C 9,1 C 16,1 km/h (3 Bft) 98,33 %
17.11.2015 10:30 11,5 C 72 % 1017,1 hPa 0,0 l/m 10,2 km/h (2 Bft) S 180 0 min 0,000 mm 0,5 UV-I 176 W/m 6,6 C 9,1 C 14,5 km/h (3 Bft) 99,08 %
17.11.2015 10:35 11,7 C 73 % 1017,1 hPa 0,0 l/m 6,8 km/h (2 Bft) SW 219 0 min 0,000 mm 0,6 UV-I 180 W/m 7,0 C 11,4 C 11,3 km/h (2 Bft) 100,00 %
17.11.2015 10:40 11,7 C 72 % 1017,1 hPa 0,0 l/m 6,1 km/h (2 Bft) SW 227 0 min 0,000 mm 0,5 UV-I 148 W/m 6,8 C 11,7 C 14,5 km/h (3 Bft) 98,37 %
17.11.2015 10:45 11,8 C 73 % 1017,1 hPa 0,0 l/m 8,2 km/h (2 Bft) W-SW 238 0 min 0,000 mm 0,6 UV-I 189 W/m 7,1 C 10,6 C 16,1 km/h (3 Bft) 97,32 %
17.11.2015 10:50 11,9 C 72 % 1017,0 hPa 0,0 l/m 8,4 km/h (2 Bft) SW 223 0 min 0,000 mm 0,3 UV-I 160 W/m 7,0 C 10,6 C 16,1 km/h (3 Bft) 99,15 %
17.11.2015 10:55 11,8 C 71 % 1016,8 hPa 0,0 l/m 10,9 km/h (2 Bft) W 263 0 min 0,000 mm 0,0 UV-I 52 W/m 6,7 C 9,1 C 17,7 km/h (3 Bft) 100,00 %
17.11.2015 11:00 11,6 C 72 % 1016,8 hPa 0,0 l/m 4,9 km/h (1 Bft) W-NW 289 0 min 0,101 mm 0,0 UV-I 34 W/m 6,7 C 11,6 C 11,3 km/h (2 Bft) 100,00 %
17.11.2015 11:05 11,4 C 73 % 1017,0 hPa 0,0 l/m 4,2 km/h (1 Bft) W 279 0 min 0,000 mm 0,0 UV-I 33 W/m 6,7 C 11,4 C 11,3 km/h (2 Bft) 100,00 %
17.11.2015 11:10 11,6 C 71 % 1016,9 hPa 0,0 l/m 6,7 km/h (2 Bft) W 267 0 min 0,000 mm 0,0 UV-I 61 W/m 6,5 C 11,4 C 12,9 km/h (3 Bft) 99,12 %
17.11.2015 11:15 11,7 C 71 % 1016,4 hPa 0,0 l/m 4,6 km/h (1 Bft) W 269 0 min 0,000 mm 0,2 UV-I 106 W/m 6,6 C 11,7 C 9,7 km/h (2 Bft) 99,19 %
17.11.2015 11:20 11,9 C 71 % 1016,7 hPa 0,0 l/m 3,9 km/h (1 Bft) W-NW 284 0 min 0,000 mm 0,6 UV-I 134 W/m 6,8 C 11,9 C 9,7 km/h (2 Bft) 100,00 %
17.11.2015 11:25 12,1 C 71 % 1016,3 hPa 0,0 l/m 2,9 km/h (1 Bft) W-SW 257 0 min 0,000 mm 0,6 UV-I 134 W/m 7,0 C 12,1 C 11,3 km/h (2 Bft) 98,21 %
17.11.2015 11:30 12,1 C 71 % 1015,6 hPa 0,0 l/m 2,2 km/h (1 Bft) S-SW 199 0 min 0,000 mm 0,5 UV-I 116 W/m 7,0 C 12,1 C 4,8 km/h (1 Bft) 98,35 %
17.11.2015 11:35 12,2 C 69 % 1015,4 hPa 0,0 l/m 2,9 km/h (1 Bft) W-NW 290 0 min 0,000 mm 0,5 UV-I 112 W/m 6,7 C 12,2 C 8,0 km/h (2 Bft) 100,00 %
17.11.2015 11:40 12,3 C 70 % 1015,1 hPa 0,0 l/m 0,8 km/h (0 Bft) S 186 0 min 0,000 mm 0,6 UV-I 172 W/m 7,0 C 12,3 C 4,8 km/h (1 Bft) 99,08 %
17.11.2015 11:45 12,7 C 67 % 1015,2 hPa 0,0 l/m 3,3 km/h (1 Bft) SW 235 0 min 0,000 mm 0,6 UV-I 179 W/m 6,7 C 12,7 C 6,4 km/h (2 Bft) 100,00 %
17.11.2015 11:50 13,0 C 68 % 1015,9 hPa 0,0 l/m 3,7 km/h (1 Bft) W 263 0 min 0,000 mm 0,5 UV-I 147 W/m 7,2 C 13,0 C 6,4 km/h (2 Bft) 100,00 %
17.11.2015 11:55 13,1 C 69 % 1016,1 hPa 0,0 l/m 4,7 km/h (1 Bft) W-NW 296 0 min 0,000 mm 0,5 UV-I 161 W/m 7,5 C 13,1 C 11,3 km/h (2 Bft) 100,00 %
17.11.2015 12:00 13,4 C 65 % 1015,9 hPa 0,0 l/m 6,1 km/h (2 Bft) NW 306 0 min 0,076 mm 0,6 UV-I 185 W/m 7,0 C 13,4 C 11,3 km/h (2 Bft) 99,11 %
17.11.2015 12:05 13,5 C 63 % 1015,6 hPa 0,0 l/m 5,3 km/h (1 Bft) W 261 0 min 0,000 mm 0,6 UV-I 145 W/m 6,6 C 13,5 C 12,9 km/h (3 Bft) 100,00 %
17.11.2015 12:10 13,7 C 62 % 1015,6 hPa 0,0 l/m 6,3 km/h (2 Bft) W 263 0 min 0,000 mm 0,8 UV-I 194 W/m 6,6 C 13,7 C 12,9 km/h (3 Bft) 98,35 %
17.11.2015 12:15 13,7 C 64 % 1015,7 hPa 0,0 l/m 3,4 km/h (1 Bft) NW 304 0 min 0,000 mm 0,8 UV-I 193 W/m 7,0 C 13,7 C 4,8 km/h (1 Bft) 100,00 %
17.11.2015 12:20 13,7 C 64 % 1015,9 hPa 0,0 l/m 6,7 km/h (2 Bft) W 271 0 min 0,000 mm 0,6 UV-I 165 W/m 7,0 C 13,5 C 17,7 km/h (3 Bft) 98,52 %
17.11.2015 12:25 13,6 C 63 % 1015,9 hPa 0,0 l/m 7,2 km/h (2 Bft) W 269 0 min 0,000 mm 0,6 UV-I 155 W/m 6,7 C 13,1 C 12,9 km/h (3 Bft) 98,21 %
17.11.2015 12:30 13,4 C 65 % 1015,7 hPa 0,0 l/m 6,5 km/h (2 Bft) W-SW 254 0 min 0,000 mm 0,5 UV-I 117 W/m 7,0 C 13,4 C 12,9 km/h (3 Bft) 99,17 %
17.11.2015 12:35 13,3 C 66 % 1015,7 hPa 0,0 l/m 4,1 km/h (1 Bft) W-NW 284 0 min 0,000 mm 0,6 UV-I 150 W/m 7,1 C 13,3 C 9,7 km/h (2 Bft) 100,00 %
17.11.2015 12:40 13,4 C 70 % 1015,7 hPa 0,0 l/m 1,7 km/h (1 Bft) W-NW 286 5 min 0,000 mm 0,8 UV-I 215 W/m 8,0 C 13,4 C 6,4 km/h (2 Bft) 98,21 %
17.11.2015 12:45 13,2 C 70 % 1015,7 hPa 0,0 l/m 1,9 km/h (1 Bft) NW 315 0 min 0,000 mm 0,6 UV-I 136 W/m 7,9 C 13,2 C 4,8 km/h (1 Bft) 100,00 %
17.11.2015 12:50 12,8 C 75 % 1015,8 hPa 0,0 l/m 1,6 km/h (1 Bft) W 277 0 min 0,000 mm 0,0 UV-I 92 W/m 8,5 C 12,8 C 4,8 km/h (1 Bft) 99,19 %
17.11.2015 12:55 12,5 C 74 % 1015,7 hPa 0,0 l/m 2,3 km/h (1 Bft) N-NW 331 0 min 0,000 mm 0,0 UV-I 87 W/m 8,0 C 12,5 C 6,4 km/h (2 Bft) 99,00 %
17.11.2015 13:00 12,3 C 73 % 1015,6 hPa 0,0 l/m 1,4 km/h (1 Bft) N-NW 348 0 min 0,102 mm 0,0 UV-I 84 W/m 7,6 C 12,3 C 3,2 km/h (1 Bft) 99,26 %
17.11.2015 13:05 12,2 C 75 % 1015,6 hPa 0,0 l/m 1,2 km/h (1 Bft) NW 319 0 min 0,000 mm 0,0 UV-I 72 W/m 7,9 C 12,2 C 4,8 km/h (1 Bft) 98,26 %
17.11.2015 13:10 12,0 C 76 % 1015,5 hPa 0,0 l/m 0,8 km/h (0 Bft) N-NW 333 0 min 0,000 mm 0,0 UV-I 55 W/m 7,9 C 12,0 C 3,2 km/h (1 Bft) 98,25 %
17.11.2015 13:15 11,8 C 79 % 1015,5 hPa 0,0 l/m 1,0 km/h (0 Bft) N-NO 18 0 min 0,000 mm 0,0 UV-I 65 W/m 8,3 C 11,8 C 3,2 km/h (1 Bft) 100,00 %
17.11.2015 13:20 11,7 C 78 % 1015,6 hPa 0,0 l/m 0,1 km/h (0 Bft) N-NO 18 0 min 0,000 mm 0,0 UV-I 68 W/m 8,0 C 11,7 C 1,6 km/h (1 Bft) 99,17 %
17.11.2015 13:25 11,7 C 80 % 1015,7 hPa 0,0 l/m 0,8 km/h (0 Bft) N-NO 18 0 min 0,000 mm 0,0 UV-I 70 W/m 8,4 C 11,7 C 3,2 km/h (1 Bft) 97,30 %
17.11.2015 13:30 11,6 C 82 % 1015,4 hPa 0,0 l/m 1,4 km/h (1 Bft) O-NO 72 0 min 0,000 mm 0,0 UV-I 68 W/m 8,6 C 11,6 C 4,8 km/h (1 Bft) 99,17 %
17.11.2015 13:35 11,5 C 83 % 1015,6 hPa 0,0 l/m 0,6 km/h (0 Bft) O-NO 78 0 min 0,000 mm 0,0 UV-I 61 W/m 8,7 C 11,5 C 3,2 km/h (1 Bft) 98,37 %
17.11.2015 13:40 11,4 C 85 % 1015,5 hPa 0,0 l/m 1,4 km/h (1 Bft) O-NO 66 0 min 0,000 mm 0,0 UV-I 71 W/m 9,0 C 11,4 C 4,8 km/h (1 Bft) 98,17 %
17.11.2015 13:45 11,3 C 83 % 1015,3 hPa 0,0 l/m 2,7 km/h (1 Bft) O 89 0 min 0,000 mm 0,0 UV-I 60 W/m 8,5 C 11,3 C 4,8 km/h (1 Bft) 98,39 %
17.11.2015 13:50 11,2 C 82 % 1015,3 hPa 0,0 l/m 2,5 km/h (1 Bft) O 80 0 min 0,000 mm 0,0 UV-I 90 W/m 8,2 C 11,2 C 4,8 km/h (1 Bft) 99,12 %
17.11.2015 13:55 11,2 C 82 % 1015,4 hPa 0,0 l/m 2,3 km/h (1 Bft) O 86 0 min 0,000 mm 0,0 UV-I 81 W/m 8,2 C 11,2 C 4,8 km/h (1 Bft) 100,00 %
17.11.2015 14:00 11,3 C 84 % 1015,4 hPa 0,0 l/m 0,9 km/h (0 Bft) N 9 0 min 0,025 mm 0,0 UV-I 49 W/m 8,7 C 11,3 C 4,8 km/h (1 Bft) 99,17 %
17.11.2015 14:05 11,3 C 83 % 1015,5 hPa 0,0 l/m 1,9 km/h (1 Bft) SO 146 0 min 0,000 mm 0,0 UV-I 47 W/m 8,5 C 11,3 C 3,2 km/h (1 Bft) 99,12 %
17.11.2015 14:10 11,6 C 79 % 1015,7 hPa 0,0 l/m 4,2 km/h (1 Bft) W 277 0 min 0,000 mm 0,0 UV-I 56 W/m 8,1 C 11,6 C 14,5 km/h (3 Bft) 99,19 %
17.11.2015 14:15 12,4 C 74 % 1015,7 hPa 0,0 l/m 7,8 km/h (2 Bft) W-SW 252 0 min 0,000 mm 0,0 UV-I 38 W/m 7,9 C 11,5 C 16,1 km/h (3 Bft) 99,08 %
17.11.2015 14:20 12,9 C 73 % 1015,9 hPa 0,0 l/m 11,0 km/h (2 Bft) SW 225 0 min 0,000 mm 0,0 UV-I 53 W/m 8,2 C 10,3 C 22,5 km/h (4 Bft) 99,19 %
17.11.2015 14:25 13,2 C 72 % 1015,6 hPa 0,0 l/m 14,8 km/h (3 Bft) W 262 0 min 0,000 mm 0,0 UV-I 55 W/m 8,3 C 9,1 C 30,6 km/h (5 Bft) 99,11 %
17.11.2015 14:30 13,3 C 70 % 1015,7 hPa 0,0 l/m 13,0 km/h (3 Bft) SW 232 0 min 0,000 mm 0,0 UV-I 31 W/m 7,9 C 9,9 C 25,7 km/h (4 Bft) 99,00 %
17.11.2015 14:35 13,7 C 67 % 1015,5 hPa 0,0 l/m 17,0 km/h (3 Bft) W-NW 290 0 min 0,000 mm 0,0 UV-I 39 W/m 7,7 C 8,9 C 35,4 km/h (5 Bft) 100,00 %
17.11.2015 14:40 13,9 C 66 % 1015,6 hPa 0,2 l/m 17,2 km/h (3 Bft) W-SW 248 0 min 0,000 mm 0,0 UV-I 33 W/m 7,7 C 9,1 C 38,6 km/h (5 Bft) 99,17 %
17.11.2015 14:45 13,8 C 67 % 1015,6 hPa 0,0 l/m 13,1 km/h (3 Bft) W 264 0 min 0,000 mm 0,0 UV-I 28 W/m 7,8 C 10,4 C 20,9 km/h (4 Bft) 100,00 %
17.11.2015 14:50 13,7 C 67 % 1015,4 hPa 0,0 l/m 12,0 km/h (2 Bft) W-SW 254 0 min 0,000 mm 0,0 UV-I 24 W/m 7,7 C 10,8 C 27,4 km/h (4 Bft) 100,00 %
17.11.2015 14:55 13,7 C 67 % 1015,4 hPa 0,0 l/m 12,0 km/h (2 Bft) S-SW 196 0 min 0,000 mm 0,0 UV-I 22 W/m 7,7 C 10,8 C 24,1 km/h (4 Bft) 99,04 %
17.11.2015 15:00 13,7 C 67 % 1015,4 hPa 0,0 l/m 13,7 km/h (3 Bft) W-NW 286 0 min 0,051 mm 0,0 UV-I 21 W/m 7,7 C 10,1 C 24,1 km/h (4 Bft) 98,41 %
17.11.2015 15:05 13,6 C 68 % 1015,4 hPa 0,0 l/m 8,5 km/h (2 Bft) W-SW 250 0 min 0,000 mm 0,0 UV-I 19 W/m 7,8 C 12,4 C 27,4 km/h (4 Bft) 100,00 %
17.11.2015 15:10 13,6 C 68 % 1015,5 hPa 0,0 l/m 12,3 km/h (3 Bft) SW 226 0 min 0,000 mm 0,0 UV-I 18 W/m 7,8 C 10,5 C 24,1 km/h (4 Bft) 100,00 %
17.11.2015 15:15 13,7 C 69 % 1015,6 hPa 0,0 l/m 13,0 km/h (3 Bft) S-SW 212 0 min 0,000 mm 0,0 UV-I 12 W/m 8,1 C 10,4 C 30,6 km/h (5 Bft) 99,28 %
17.11.2015 15:20 13,2 C 73 % 1015,5 hPa 0,0 l/m 12,4 km/h (3 Bft) W-SW 238 0 min 0,000 mm 0,0 UV-I 18 W/m 8,5 C 10,0 C 29,0 km/h (5 Bft) 100,00 %
17.11.2015 15:25 12,9 C 74 % 1015,6 hPa 0,2 l/m 12,3 km/h (3 Bft) W-SW 243 0 min 0,000 mm 0,0 UV-I 14 W/m 8,4 C 9,7 C 22,5 km/h (4 Bft) 99,11 %
17.11.2015 15:30 12,9 C 75 % 1015,7 hPa 0,0 l/m 14,1 km/h (3 Bft) SW 216 0 min 0,000 mm 0,0 UV-I 11 W/m 8,6 C 9,0 C 35,4 km/h (5 Bft) 100,00 %
17.11.2015 15:35 12,9 C 74 % 1015,6 hPa 0,0 l/m 15,2 km/h (3 Bft) W-NW 298 0 min 0,000 mm 0,0 UV-I 12 W/m 8,4 C 8,6 C 35,4 km/h (5 Bft) 98,17 %
17.11.2015 15:40 12,9 C 75 % 1015,6 hPa 0,0 l/m 13,1 km/h (3 Bft) NW 324 0 min 0,000 mm 0,0 UV-I 16 W/m 8,6 C 9,4 C 33,8 km/h (5 Bft) 100,00 %
17.11.2015 15:45 12,9 C 76 % 1015,6 hPa 0,0 l/m 11,9 km/h (2 Bft) W-SW 250 0 min 0,000 mm 0,0 UV-I 18 W/m 8,8 C 9,9 C 29,0 km/h (5 Bft) 99,13 %
17.11.2015 15:50 13,0 C 75 % 1015,5 hPa 0,0 l/m 16,0 km/h (3 Bft) SW 215 0 min 0,000 mm 0,0 UV-I 13 W/m 8,7 C 8,4 C 33,8 km/h (5 Bft) 97,37 %
17.11.2015 15:55 12,9 C 75 % 1015,7 hPa 0,0 l/m 13,6 km/h (3 Bft) SW 215 0 min 0,000 mm 0,0 UV-I 9 W/m 8,6 C 9,2 C 27,4 km/h (4 Bft) 100,00 %
17.11.2015 16:00 13,0 C 75 % 1015,6 hPa 0,0 l/m 12,5 km/h (3 Bft) W-SW 247 0 min 0,051 mm 0,0 UV-I 6 W/m 8,7 C 9,8 C 30,6 km/h (5 Bft) 99,19 %
17.11.2015 16:05 12,8 C 77 % 1015,6 hPa 0,0 l/m 13,9 km/h (3 Bft) SW 225 0 min 0,000 mm 0,0 UV-I 7 W/m 8,9 C 8,9 C 29,0 km/h (5 Bft) 100,00 %
17.11.2015 16:10 12,7 C 77 % 1015,6 hPa 0,0 l/m 15,6 km/h (3 Bft) SW 232 0 min 0,000 mm 0,0 UV-I 6 W/m 8,8 C 8,2 C 30,6 km/h (5 Bft) 100,00 %
17.11.2015 16:15 12,8 C 77 % 1015,6 hPa 0,0 l/m 17,5 km/h (3 Bft) W-SW 252 0 min 0,000 mm 0,0 UV-I 1 W/m 8,9 C 7,7 C 29,0 km/h (5 Bft) 98,17 %
17.11.2015 16:20 12,7 C 78 % 1015,7 hPa 0,0 l/m 12,6 km/h (3 Bft) S 178 0 min 0,000 mm 0,0 UV-I 0 W/m 9,0 C 9,4 C 22,5 km/h (4 Bft) 98,25 %
17.11.2015 16:25 12,7 C 79 % 1015,7 hPa 0,0 l/m 16,5 km/h (3 Bft) W 273 0 min 0,000 mm 0,0 UV-I 0 W/m 9,2 C 7,9 C 27,4 km/h (4 Bft) 100,00 %
17.11.2015 16:30 12,7 C 80 % 1015,7 hPa 0,0 l/m 16,5 km/h (3 Bft) SW 219 0 min 0,000 mm 0,0 UV-I 0 W/m 9,3 C 7,9 C 30,6 km/h (5 Bft) 99,19 %
17.11.2015 16:35 12,7 C 79 % 1015,8 hPa 0,0 l/m 16,6 km/h (3 Bft) SW 215 0 min 0,000 mm 0,0 UV-I 0 W/m 9,2 C 7,8 C 38,6 km/h (5 Bft) 100,00 %
17.11.2015 16:40 12,6 C 79 % 1015,8 hPa 0,0 l/m 18,2 km/h (3 Bft) S-SW 212 0 min 0,000 mm 0,0 UV-I 0 W/m 9,1 C 7,2 C 33,8 km/h (5 Bft) 100,00 %
17.11.2015 16:45 12,4 C 79 % 1015,6 hPa 0,0 l/m 17,6 km/h (3 Bft) S-SW 200 0 min 0,000 mm 0,0 UV-I 0 W/m 8,9 C 7,1 C 29,0 km/h (5 Bft) 100,00 %
17.11.2015 16:50 12,3 C 80 % 1015,5 hPa 0,0 l/m 16,5 km/h (3 Bft) S-SW 202 0 min 0,000 mm 0,0 UV-I 0 W/m 8,9 C 7,4 C 29,0 km/h (5 Bft) 100,00 %
17.11.2015 16:55 12,3 C 81 % 1015,6 hPa 0,0 l/m 13,9 km/h (3 Bft) SW 236 0 min 0,000 mm 0,0 UV-I 0 W/m 9,1 C 8,4 C 25,7 km/h (4 Bft) 99,08 %
17.11.2015 17:00 12,3 C 81 % 1015,5 hPa 0,0 l/m 16,2 km/h (3 Bft) W-SW 244 0 min 0,051 mm 0,0 UV-I 0 W/m 9,1 C 7,5 C 33,8 km/h (5 Bft) 97,78 %
17.11.2015 17:05 12,3 C 81 % 1015,5 hPa 0,0 l/m 15,8 km/h (3 Bft) W-SW 242 0 min 0,000 mm 0,0 UV-I 0 W/m 9,1 C 7,6 C 29,0 km/h (5 Bft) 97,39 %
17.11.2015 17:10 12,3 C 81 % 1015,5 hPa 0,0 l/m 11,6 km/h (2 Bft) SW 225 0 min 0,000 mm 0,0 UV-I 0 W/m 9,1 C 9,3 C 24,1 km/h (4 Bft) 98,97 %
17.11.2015 17:15 12,3 C 80 % 1015,4 hPa 0,0 l/m 13,6 km/h (3 Bft) S-SW 205 0 min 0,000 mm 0,0 UV-I 0 W/m 8,9 C 8,5 C 29,0 km/h (5 Bft) 99,28 %
17.11.2015 17:20 12,3 C 80 % 1015,4 hPa 0,0 l/m 14,1 km/h (3 Bft) W-SW 238 0 min 0,000 mm 0,0 UV-I 0 W/m 8,9 C 8,3 C 32,2 km/h (5 Bft) 99,11 %
17.11.2015 17:25 12,3 C 80 % 1015,4 hPa 0,0 l/m 15,2 km/h (3 Bft) W-SW 256 0 min 0,000 mm 0,0 UV-I 0 W/m 8,9 C 7,8 C 27,4 km/h (4 Bft) 99,15 %
17.11.2015 17:30 12,3 C 80 % 1015,3 hPa 0,0 l/m 12,3 km/h (3 Bft) S-SW 194 0 min 0,000 mm 0,0 UV-I 0 W/m 8,9 C 9,0 C 25,7 km/h (4 Bft) 99,19 %
17.11.2015 17:35 12,4 C 80 % 1015,3 hPa 0,0 l/m 11,8 km/h (2 Bft) W-SW 246 0 min 0,000 mm 0,0 UV-I 0 W/m 9,0 C 9,4 C 20,9 km/h (4 Bft) 99,08 %
17.11.2015 17:40 12,4 C 80 % 1015,3 hPa 0,0 l/m 13,1 km/h (3 Bft) S-SW 207 0 min 0,000 mm 0,0 UV-I 0 W/m 9,0 C 8,8 C 27,4 km/h (4 Bft) 100,00 %
17.11.2015 17:45 12,6 C 80 % 1015,2 hPa 0,0 l/m 13,6 km/h (3 Bft) SW 225 0 min 0,000 mm 0,0 UV-I 0 W/m 9,2 C 8,8 C 25,7 km/h (4 Bft) 100,00 %
17.11.2015 17:50 12,6 C 80 % 1015,3 hPa 0,0 l/m 12,6 km/h (3 Bft) SW 214 0 min 0,000 mm 0,0 UV-I 0 W/m 9,2 C 9,2 C 24,1 km/h (4 Bft) 99,12 %
17.11.2015 17:55 12,6 C 79 % 1015,5 hPa 0,0 l/m 11,2 km/h (2 Bft) S-SW 199 0 min 0,000 mm 0,0 UV-I 0 W/m 9,1 C 9,9 C 20,9 km/h (4 Bft) 99,15 %
17.11.2015 18:00 12,6 C 80 % 1015,5 hPa 0,0 l/m 9,3 km/h (2 Bft) SW 229 0 min 0,025 mm 0,0 UV-I 0 W/m 9,2 C 10,8 C 20,9 km/h (4 Bft) 100,00 %
17.11.2015 18:05 12,7 C 79 % 1015,6 hPa 0,0 l/m 7,9 km/h (2 Bft) S-SW 210 0 min 0,000 mm 0,0 UV-I 0 W/m 9,2 C 11,7 C 16,1 km/h (3 Bft) 100,00 %
17.11.2015 18:10 12,7 C 79 % 1015,7 hPa 0,0 l/m 6,9 km/h (2 Bft) SW 214 0 min 0,000 mm 0,0 UV-I 0 W/m 9,2 C 12,4 C 14,5 km/h (3 Bft) 100,00 %
17.11.2015 18:15 12,7 C 80 % 1015,7 hPa 0,0 l/m 6,6 km/h (2 Bft) W 273 0 min 0,000 mm 0,0 UV-I 0 W/m 9,3 C 12,6 C 16,1 km/h (3 Bft) 99,17 %
17.11.2015 18:20 12,8 C 80 % 1015,6 hPa 0,0 l/m 6,3 km/h (2 Bft) SW 221 0 min 0,000 mm 0,0 UV-I 0 W/m 9,4 C 12,8 C 14,5 km/h (3 Bft) 100,00 %
17.11.2015 18:25 12,8 C 79 % 1015,6 hPa 0,0 l/m 6,6 km/h (2 Bft) W-SW 242 0 min 0,000 mm 0,0 UV-I 0 W/m 9,2 C 12,7 C 12,9 km/h (3 Bft) 100,00 %
17.11.2015 18:30 12,9 C 79 % 1015,6 hPa 0,0 l/m 7,0 km/h (2 Bft) W-SW 242 0 min 0,000 mm 0,0 UV-I 0 W/m 9,3 C 12,5 C 14,5 km/h (3 Bft) 100,00 %
17.11.2015 18:35 12,8 C 79 % 1015,5 hPa 0,0 l/m 5,9 km/h (2 Bft) SW 236 0 min 0,000 mm 0,0 UV-I 0 W/m 9,2 C 12,8 C 11,3 km/h (2 Bft) 99,17 %
17.11.2015 18:40 12,8 C 79 % 1015,4 hPa 0,0 l/m 7,5 km/h (2 Bft) S-SW 209 0 min 0,000 mm 0,0 UV-I 0 W/m 9,2 C 12,1 C 14,5 km/h (3 Bft) 100,00 %
17.11.2015 18:45 12,9 C 79 % 1015,4 hPa 0,0 l/m 6,1 km/h (2 Bft) S-SW 210 0 min 0,000 mm 0,0 UV-I 0 W/m 9,3 C 12,9 C 11,3 km/h (2 Bft) 100,00 %
17.11.2015 18:50 12,9 C 78 % 1015,6 hPa 0,0 l/m 7,1 km/h (2 Bft) S-SW 200 0 min 0,000 mm 0,0 UV-I 0 W/m 9,2 C 12,5 C 14,5 km/h (3 Bft) 98,39 %
17.11.2015 18:55 13,0 C 77 % 1015,5 hPa 0,0 l/m 5,8 km/h (2 Bft) W 265 0 min 0,000 mm 0,0 UV-I 0 W/m 9,1 C 13,0 C 14,5 km/h (3 Bft) 100,00 %
17.11.2015 19:00 13,1 C 77 % 1015,4 hPa 0,0 l/m 6,3 km/h (2 Bft) W-SW 243 0 min 0,026 mm 0,0 UV-I 0 W/m 9,2 C 13,1 C 11,3 km/h (2 Bft) 98,25 %
17.11.2015 19:05 13,1 C 76 % 1015,4 hPa 0,0 l/m 7,9 km/h (2 Bft) SW 219 0 min 0,000 mm 0,0 UV-I 0 W/m 9,0 C 12,2 C 16,1 km/h (3 Bft) 97,52 %
17.11.2015 19:10 13,1 C 76 % 1015,4 hPa 0,0 l/m 8,6 km/h (2 Bft) SW 217 0 min 0,000 mm 0,0 UV-I 0 W/m 9,0 C 11,8 C 17,7 km/h (3 Bft) 100,00 %
17.11.2015 19:15 13,2 C 75 % 1015,4 hPa 0,0 l/m 8,7 km/h (2 Bft) W-SW 256 0 min 0,000 mm 0,0 UV-I 0 W/m 8,9 C 11,8 C 17,7 km/h (3 Bft) 97,62 %
17.11.2015 19:20 13,3 C 75 % 1015,4 hPa 0,0 l/m 8,6 km/h (2 Bft) SW 219 0 min 0,000 mm 0,0 UV-I 0 W/m 9,0 C 12,0 C 16,1 km/h (3 Bft) 100,00 %
17.11.2015 19:25 13,3 C 75 % 1015,4 hPa 0,0 l/m 7,7 km/h (2 Bft) W-NW 287 0 min 0,000 mm 0,0 UV-I 0 W/m 9,0 C 12,5 C 14,5 km/h (3 Bft) 100,00 %
17.11.2015 19:30 13,3 C 74 % 1015,3 hPa 0,0 l/m 8,7 km/h (2 Bft) SW 220 0 min 0,000 mm 0,0 UV-I 0 W/m 8,8 C 11,9 C 19,3 km/h (3 Bft) 99,13 %
17.11.2015 19:35 13,3 C 74 % 1015,3 hPa 0,0 l/m 10,3 km/h (2 Bft) SW 229 0 min 0,000 mm 0,0 UV-I 0 W/m 8,8 C 11,1 C 19,3 km/h (3 Bft) 99,11 %
17.11.2015 19:40 13,3 C 73 % 1015,4 hPa 0,0 l/m 9,3 km/h (2 Bft) W-SW 240 0 min 0,000 mm 0,0 UV-I 0 W/m 8,6 C 11,6 C 16,1 km/h (3 Bft) 100,00 %
17.11.2015 19:45 13,3 C 73 % 1015,4 hPa 0,0 l/m 11,6 km/h (2 Bft) SW 221 0 min 0,000 mm 0,0 UV-I 0 W/m 8,6 C 10,5 C 22,5 km/h (4 Bft) 100,00 %
17.11.2015 19:50 13,4 C 73 % 1015,4 hPa 0,0 l/m 12,4 km/h (3 Bft) W-SW 240 0 min 0,000 mm 0,0 UV-I 0 W/m 8,7 C 10,3 C 20,9 km/h (4 Bft) 99,21 %
17.11.2015 19:55 13,4 C 73 % 1015,4 hPa 0,0 l/m 12,9 km/h (3 Bft) W-SW 239 0 min 0,000 mm 0,0 UV-I 0 W/m 8,7 C 10,1 C 22,5 km/h (4 Bft) 99,13 %
17.11.2015 20:00 13,3 C 73 % 1015,4 hPa 0,0 l/m 11,5 km/h (2 Bft) W-SW 246 0 min 0,025 mm 0,0 UV-I 0 W/m 8,6 C 10,5 C 19,3 km/h (3 Bft) 98,17 %
17.11.2015 20:05 13,2 C 74 % 1015,4 hPa 0,0 l/m 10,2 km/h (2 Bft) SW 219 0 min 0,000 mm 0,0 UV-I 0 W/m 8,7 C 11,0 C 19,3 km/h (3 Bft) 99,13 %
17.11.2015 20:10 13,1 C 74 % 1015,3 hPa 0,0 l/m 11,9 km/h (2 Bft) W-SW 258 0 min 0,000 mm 0,0 UV-I 0 W/m 8,6 C 10,1 C 19,3 km/h (3 Bft) 99,19 %
17.11.2015 20:15 13,2 C 73 % 1015,3 hPa 0,0 l/m 12,6 km/h (3 Bft) SW 232 0 min 0,000 mm 0,0 UV-I 0 W/m 8,5 C 9,9 C 22,5 km/h (4 Bft) 99,15 %
17.11.2015 20:20 13,3 C 73 % 1015,2 hPa 0,0 l/m 12,7 km/h (3 Bft) SW 216 0 min 0,000 mm 0,0 UV-I 0 W/m 8,6 C 10,0 C 20,9 km/h (4 Bft) 99,15 %
17.11.2015 20:25 13,4 C 74 % 1015,4 hPa 0,0 l/m 10,2 km/h (2 Bft) S-SW 209 0 min 0,000 mm 0,0 UV-I 0 W/m 8,9 C 11,3 C 22,5 km/h (4 Bft) 99,17 %
17.11.2015 20:30 13,4 C 74 % 1015,4 hPa 0,0 l/m 9,8 km/h (2 Bft) W-SW 252 0 min 0,000 mm 0,0 UV-I 0 W/m 8,9 C 11,5 C 20,9 km/h (4 Bft) 100,00 %
17.11.2015 20:35 13,4 C 74 % 1015,6 hPa 0,0 l/m 9,1 km/h (2 Bft) S-SW 211 0 min 0,000 mm 0,0 UV-I 0 W/m 8,9 C 11,8 C 17,7 km/h (3 Bft) 100,00 %
17.11.2015 20:40 13,5 C 73 % 1015,5 hPa 0,0 l/m 7,9 km/h (2 Bft) W-NW 286 0 min 0,000 mm 0,0 UV-I 0 W/m 8,8 C 12,6 C 16,1 km/h (3 Bft) 98,31 %
17.11.2015 20:45 13,6 C 73 % 1015,6 hPa 0,0 l/m 7,8 km/h (2 Bft) SW 218 0 min 0,000 mm 0,0 UV-I 0 W/m 8,9 C 12,7 C 16,1 km/h (3 Bft) 98,33 %
17.11.2015 20:50 13,7 C 73 % 1015,7 hPa 0,0 l/m 7,8 km/h (2 Bft) W-SW 253 0 min 0,000 mm 0,0 UV-I 0 W/m 8,9 C 12,9 C 16,1 km/h (3 Bft) 99,17 %
17.11.2015 20:55 13,7 C 73 % 1015,7 hPa 0,0 l/m 7,6 km/h (2 Bft) W 266 0 min 0,000 mm 0,0 UV-I 0 W/m 8,9 C 13,0 C 14,5 km/h (3 Bft) 99,15 %
17.11.2015 21:00 13,7 C 73 % 1015,8 hPa 0,0 l/m 7,7 km/h (2 Bft) SW 221 0 min 0,025 mm 0,0 UV-I 0 W/m 8,9 C 12,9 C 16,1 km/h (3 Bft) 100,00 %
17.11.2015 21:05 13,7 C 73 % 1015,7 hPa 0,0 l/m 9,4 km/h (2 Bft) SW 224 0 min 0,000 mm 0,0 UV-I 0 W/m 8,9 C 12,0 C 20,9 km/h (4 Bft) 99,08 %
17.11.2015 21:10 13,8 C 72 % 1015,7 hPa 0,0 l/m 11,7 km/h (2 Bft) SW 232 0 min 0,000 mm 0,0 UV-I 0 W/m 8,8 C 11,0 C 19,3 km/h (3 Bft) 99,15 %
17.11.2015 21:15 13,8 C 73 % 1015,7 hPa 0,0 l/m 8,1 km/h (2 Bft) S-SW 204 0 min 0,000 mm 0,0 UV-I 0 W/m 9,0 C 12,8 C 16,1 km/h (3 Bft) 100,00 %
17.11.2015 21:20 13,8 C 73 % 1015,7 hPa 0,0 l/m 9,9 km/h (2 Bft) S-SW 213 0 min 0,000 mm 0,0 UV-I 0 W/m 9,0 C 11,8 C 19,3 km/h (3 Bft) 100,00 %
17.11.2015 21:25 13,9 C 73 % 1015,7 hPa 0,0 l/m 9,6 km/h (2 Bft) W 279 0 min 0,000 mm 0,0 UV-I 0 W/m 9,1 C 12,1 C 16,1 km/h (3 Bft) 99,17 %
17.11.2015 21:30 13,9 C 73 % 1015,6 hPa 0,0 l/m 10,4 km/h (2 Bft) W-SW 241 0 min 0,000 mm 0,0 UV-I 0 W/m 9,1 C 11,7 C 17,7 km/h (3 Bft) 99,08 %
17.11.2015 21:35 13,9 C 73 % 1015,6 hPa 0,0 l/m 10,6 km/h (2 Bft) SW 222 0 min 0,000 mm 0,0 UV-I 0 W/m 9,1 C 11,6 C 17,7 km/h (3 Bft) 99,17 %
17.11.2015 21:40 13,8 C 74 % 1015,5 hPa 0,0 l/m 9,9 km/h (2 Bft) S 188 0 min 0,000 mm 0,0 UV-I 0 W/m 9,2 C 11,8 C 16,1 km/h (3 Bft) 98,29 %
17.11.2015 21:45 13,7 C 74 % 1015,5 hPa 0,0 l/m 9,4 km/h (2 Bft) SW 217 0 min 0,000 mm 0,0 UV-I 0 W/m 9,2 C 12,0 C 16,1 km/h (3 Bft) 98,35 %
17.11.2015 21:50 13,7 C 75 % 1015,5 hPa 0,0 l/m 8,0 km/h (2 Bft) SW 217 0 min 0,000 mm 0,0 UV-I 0 W/m 9,3 C 12,7 C 14,5 km/h (3 Bft) 99,07 %
17.11.2015 21:55 13,6 C 75 % 1015,4 hPa 0,0 l/m 9,4 km/h (2 Bft) SW 215 0 min 0,000 mm 0,0 UV-I 0 W/m 9,3 C 11,9 C 20,9 km/h (4 Bft) 98,37 %
17.11.2015 22:00 13,5 C 75 % 1015,4 hPa 0,0 l/m 8,3 km/h (2 Bft) SW 214 0 min 0,026 mm 0,0 UV-I 0 W/m 9,2 C 12,4 C 19,3 km/h (3 Bft) 98,31 %
17.11.2015 22:05 13,4 C 76 % 1015,4 hPa 0,0 l/m 7,4 km/h (2 Bft) SW 216 0 min 0,000 mm 0,0 UV-I 0 W/m 9,3 C 12,8 C 16,1 km/h (3 Bft) 100,00 %
17.11.2015 22:10 13,3 C 76 % 1015,4 hPa 0,0 l/m 7,0 km/h (2 Bft) W-SW 247 0 min 0,000 mm 0,0 UV-I 0 W/m 9,2 C 12,9 C 16,1 km/h (3 Bft) 99,15 %
17.11.2015 22:15 13,2 C 76 % 1015,4 hPa 0,0 l/m 5,6 km/h (1 Bft) SW 230 0 min 0,000 mm 0,0 UV-I 0 W/m 9,1 C 13,2 C 11,3 km/h (2 Bft) 99,17 %
17.11.2015 22:20 13,0 C 77 % 1015,4 hPa 0,0 l/m 4,4 km/h (1 Bft) S-SW 213 0 min 0,000 mm 0,0 UV-I 0 W/m 9,1 C 13,0 C 9,7 km/h (2 Bft) 98,29 %
17.11.2015 22:25 12,9 C 77 % 1015,3 hPa 0,0 l/m 5,4 km/h (1 Bft) W 259 0 min 0,000 mm 0,0 UV-I 0 W/m 9,0 C 12,9 C 12,9 km/h (3 Bft) 98,31 %
17.11.2015 22:30 12,8 C 78 % 1015,3 hPa 0,0 l/m 6,0 km/h (2 Bft) S-SW 198 0 min 0,000 mm 0,0 UV-I 0 W/m 9,1 C 12,8 C 9,7 km/h (2 Bft) 100,00 %
17.11.2015 22:35 12,7 C 78 % 1015,2 hPa 0,0 l/m 4,0 km/h (1 Bft) W-NW 293 0 min 0,000 mm 0,0 UV-I 0 W/m 9,0 C 12,7 C 8,0 km/h (2 Bft) 100,00 %
17.11.2015 22:40 12,5 C 78 % 1015,1 hPa 0,0 l/m 3,0 km/h (1 Bft) SW 221 0 min 0,000 mm 0,0 UV-I 0 W/m 8,8 C 12,5 C 6,4 km/h (2 Bft) 99,17 %
17.11.2015 22:45 12,3 C 79 % 1015,1 hPa 0,0 l/m 2,9 km/h (1 Bft) SW 228 0 min 0,000 mm 0,0 UV-I 0 W/m 8,8 C 12,3 C 9,7 km/h (2 Bft) 99,15 %
17.11.2015 22:50 12,3 C 79 % 1015,1 hPa 0,0 l/m 2,9 km/h (1 Bft) S-SW 213 0 min 0,000 mm 0,0 UV-I 0 W/m 8,8 C 12,3 C 6,4 km/h (2 Bft) 99,15 %
17.11.2015 22:55 12,4 C 79 % 1014,9 hPa 0,0 l/m 3,5 km/h (1 Bft) S-SW 212 0 min 0,000 mm 0,0 UV-I 0 W/m 8,9 C 12,4 C 8,0 km/h (2 Bft) 97,46 %
17.11.2015 23:00 12,4 C 78 % 1014,8 hPa 0,0 l/m 4,8 km/h (1 Bft) S-SW 202 0 min 0,025 mm 0,0 UV-I 0 W/m 8,7 C 12,4 C 8,0 km/h (2 Bft) 100,00 %
17.11.2015 23:05 12,4 C 78 % 1014,6 hPa 0,0 l/m 3,9 km/h (1 Bft) S-SW 205 0 min 0,000 mm 0,0 UV-I 0 W/m 8,7 C 12,4 C 6,4 km/h (2 Bft) 100,00 %
17.11.2015 23:10 12,3 C 78 % 1014,4 hPa 0,0 l/m 3,0 km/h (1 Bft) S-SW 205 0 min 0,000 mm 0,0 UV-I 0 W/m 8,6 C 12,3 C 6,4 km/h (2 Bft) 99,19 %
17.11.2015 23:15 12,3 C 79 % 1014,4 hPa 0,0 l/m 2,4 km/h (1 Bft) SW 219 0 min 0,000 mm 0,0 UV-I 0 W/m 8,8 C 12,3 C 6,4 km/h (2 Bft) 98,15 %
17.11.2015 23:20 12,3 C 79 % 1014,2 hPa 0,0 l/m 2,8 km/h (1 Bft) S-SW 199 0 min 0,000 mm 0,0 UV-I 0 W/m 8,8 C 12,3 C 4,8 km/h (1 Bft) 99,19 %
17.11.2015 23:25 12,4 C 79 % 1014,1 hPa 0,0 l/m 2,2 km/h (1 Bft) S-SW 201 0 min 0,000 mm 0,0 UV-I 0 W/m 8,9 C 12,4 C 3,2 km/h (1 Bft) 100,00 %
17.11.2015 23:30 12,4 C 78 % 1014,3 hPa 0,0 l/m 1,0 km/h (0 Bft) S-SW 201 0 min 0,000 mm 0,0 UV-I 0 W/m 8,7 C 12,4 C 3,2 km/h (1 Bft) 100,00 %
17.11.2015 23:35 12,4 C 78 % 1014,5 hPa 0,0 l/m 0,4 km/h (0 Bft) W-SW 248 0 min 0,000 mm 0,0 UV-I 0 W/m 8,7 C 12,4 C 3,2 km/h (1 Bft) 100,00 %
17.11.2015 23:40 12,3 C 78 % 1014,5 hPa 0,0 l/m 0,2 km/h (0 Bft) W-SW 248 0 min 0,000 mm 0,0 UV-I 0 W/m 8,6 C 12,3 C 1,6 km/h (1 Bft) 97,25 %
17.11.2015 23:45 12,1 C 79 % 1014,6 hPa 0,0 l/m 0,3 km/h (0 Bft) W-SW 248 0 min 0,000 mm 0,0 UV-I 0 W/m 8,6 C 12,1 C 1,6 km/h (1 Bft) 100,00 %
17.11.2015 23:50 11,5 C 81 % 1014,9 hPa 0,0 l/m 1,4 km/h (1 Bft) W-SW 248 0 min 0,000 mm 0,0 UV-I 0 W/m 8,4 C 11,5 C 3,2 km/h (1 Bft) 99,17 %
17.11.2015 23:55 11,3 C 82 % 1014,8 hPa 0,0 l/m 0,3 km/h (0 Bft) W-SW 248 0 min 0,000 mm 0,0 UV-I 0 W/m 8,3 C 11,3 C 1,6 km/h (1 Bft) 99,12 %
_ Min-Zeit 05:50 12:10 23:25 - 02:25 - - - - - - 08:30 05:50 05:50 07:20
Minimum _ 5,4 C 62 % 1014,1 hPa - 0,0 km/h (0 Bft) - - - - - - 3,8 C 5,4 C 0,0 km/h (0 Bft) 96,40 %
_ Max-Zeit 14:40 05:50 01:00 14:40 16:40 - - 08:50 13:00 10:25 10:25 18:20 12:10 14:40 00:10
Maximum _ 13,9 C 91 % 1017,3 hPa 0,2 l/m 18,2 km/h
S-SW (3 Bft)
- - 5 min 0,102 mm 0,8 UV-I 426 W/m 9,4 C 13,7 C 38,6 km/h
W-NW (5 Bft)
100,00 %
Durchschnitt _ 10,5 C 78 % 1016,1 hPa #0,4 l/m 5,1 km/h (1 Bft) SW - #55 min. #0,711 mm 0,6 UV-I 87 W/m 6,9 C 9,7 C 10,7 km/h (2 Bft) 99,20 %